{"data":{"norad_id":66457,"epoch":"2026-09-20T08:12:50.608224Z","epoch_age_seconds":107069,"freshness":"FRESH","line1":"1 66457U 25262B   26263.34225241  .00011525  00000+0  42765-3 0  9997","line2":"2 66457  43.0038 277.0822 0000538 271.5083  88.5707 15.27582753 48673","mean_motion":15.27582753,"eccentricity":5.38e-5,"inclination_deg":43.0038,"raan_deg":277.0822,"arg_perigee_deg":271.5083,"mean_anomaly_deg":88.5707,"bstar":0.00042765,"rev_number":4867,"period_min":94.266578826712,"perigee_km":482.67172121118,"apogee_km":483.40998394812,"semimajor_km":6861.1778525796,"source":"CELESTRAK","updated_at":"2026-09-21T09:00:35.912498Z"}}